PROGRESS-MS 34

Last updated on Sun Jun 21 2026 00:02:11 GMT+0000 (Coordinated Universal Time)

1 68837U 26093A 26171.15661001 .00008669 00000+0 16345-3 0 9999 2 68837 51.6329 285.3962 0004555 207.7610 152.3136 15.49327998572199
UTC large
Height (km)
Speed (km/s)
/
Latitude / Longitude
Inclination (degrees)
Orbital Period (minutes)
Azimuth
Elevation
Range (km)
Doppler Factor

Next 0 passes for location: London (51.5072 / 0.1276)

No passes found over London.
PROGRESS-MS 34